This is the latest recevied weather packets stored in our database for station/object AB0TJ. If no packets are shown the sender has not sent any weather packets the latest 10 day(s).
| Time | Temp. | Humidity | Pressure | Rain* | Wind** | Luminosity | Snow |
|---|---|---|---|---|---|---|---|
| 1777663719 | 18.33° C | 26% | 1017.2 hPa | 0 mm | - | 848 W/m² | - |
| 1777663177 | 18.33° C | 27% | 1017.6 hPa | 0 mm | - | 834 W/m² | - |
| 1777662580 | 18.33° C | 28% | 1017.6 hPa | 0 mm | - | 838 W/m² | - |
| 1777662049 | 17.78° C | 28% | 1017.9 hPa | 0 mm | - | 841 W/m² | - |
| 1777661553 | 17.78° C | 28% | 1017.7 hPa | 0 mm | - | 828 W/m² | - |
| 1777661069 | 17.78° C | 28% | 1018.1 hPa | 0 mm | - | 818 W/m² | - |
| 1777660532 | 17.78° C | 29% | 1018.3 hPa | 0 mm | - | 804 W/m² | - |
| 1777659973 | 17.78° C | 29% | 1018.3 hPa | 0 mm | - | 797 W/m² | - |
| 1777659489 | 17.78° C | 28% | 1018.6 hPa | 0 mm | - | 789 W/m² | - |
| 1777659009 | 17.22° C | 29% | 1018.4 hPa | 0 mm | - | 779 W/m² | - |
| 1777658433 | 17.22° C | 30% | 1018.6 hPa | 0 mm | - | 768 W/m² | - |
| 1777657913 | 16.67° C | 30% | 1018.9 hPa | 0 mm | - | 758 W/m² | - |
| 1777657324 | 16.67° C | 30% | 1018.6 hPa | 0 mm | - | 742 W/m² | - |
| 1777656767 | 17.22° C | 29% | 1019.1 hPa | 0 mm | - | 728 W/m² | - |
| 1777656257 | 16.67° C | 30% | 1018.9 hPa | 0 mm | - | 717 W/m² | - |
| 1777655689 | 16.67° C | 31% | 1019.1 hPa | 0 mm | - | 694 W/m² | - |
| 1777655213 | 16.67° C | 32% | 1019.1 hPa | 0 mm | - | 678 W/m² | - |
| 1777654624 | 16.11° C | 33% | 1019.3 hPa | 0 mm | - | 659 W/m² | - |
| 1777654053 | 16.11° C | 34% | 1019.4 hPa | 0 mm | - | 635 W/m² | - |
| 1777653505 | 16.11° C | 36% | 1019.2 hPa | 0 mm | - | 615 W/m² | - |
| 1777652932 | 16.11° C | 33% | 1019.6 hPa | 0 mm | - | 590 W/m² | - |
| 1777652333 | 16.11° C | 35% | 1019.3 hPa | 0 mm | - | 566 W/m² | - |
| 1777651769 | 15.56° C | 35% | 1019.5 hPa | 0 mm | - | 539 W/m² | - |
| 1777651251 | 15.56° C | 35% | 1019.6 hPa | 0 mm | - | 516 W/m² | - |
| 1777650759 | 15° C | 36% | 1019.2 hPa | 0 mm | - | 492 W/m² | - |
* Rain latest hour (hover to see other rain measurements)
** Current wind speed in m/s (hover to see current wind gust speed)